Tracking 19817 objects as of 19-Aug-2019
HD Live streaming from Space Station
objects crossing your sky now

COSMOS 2168

Track COSMOS 2168 now!
10-day predictions
COSMOS 2168 is classified as:


NORAD ID: 21782
Int'l Code: 1991-077D
Perigee: 1,397.4 km
Apogee: 1,417.8 km
Inclination: 82.6 °
Period: 113.8 minutes
Semi major axis: 7778 km
RCS: 1.1161 m2 (large)
Launch date: November 12, 1991
Source: Commonwealth of Independent States (former USSR) (CIS)
Launch site: PLESETSK MISSILE AND SPACE COMPLEX (PKMTR)
aabbcc
Your satellite tracking list
Your tracking list is empty




NASA's NSSDC Master Catalog

Two Line Element Set (TLE):
1 21782U 91077D   19230.87582817 +.00000028 +00000-0 +95571-4 0  9996
2 21782 082.5994 009.8612 0013115 314.5161 160.1267 12.65462070282308
Source of the keplerian elements: AFSPC